Hourly Weather Bolshie Lipovichi

Today, 18 June, Friday

Time Temperature Precipitation Wind Pressure Humidity
00:00 +16°C° 0 mm 1 mps 752 mmHg 83%
01:00 +15°C° 0 mm 1 mps 752 mmHg 85%
02:00 +15°C° 0 mm 1 mps 752 mmHg 86%
03:00 +16°C° 0 mm 1 mps 752 mmHg 85%
04:00 +16°C° 0 mm 1 mps 752 mmHg 85%
05:00 +16°C° 0 mm 1 mps 753 mmHg 85%
06:00 +19°C° 0 mm 1 mps 753 mmHg 80%
07:00 +21°C° 0 mm 1 mps 753 mmHg 75%
08:00 +21°C° 0 mm 2 mps 753 mmHg 70%
09:00 +23°C° 0 mm 2 mps 753 mmHg 66%
10:00 +24°C° 0 mm 2 mps 753 mmHg 62%
11:00 +26°C° 0 mm 3 mps 753 mmHg 59%
12:00 +26°C° 0 mm 3 mps 753 mmHg 58%
13:00 +26°C° 0 mm 3 mps 752 mmHg 57%
14:00 +26°C° 0 mm 4 mps 752 mmHg 56%
15:00 +26°C° 0 mm 3 mps 752 mmHg 59%
16:00 +26°C° 0 mm 3 mps 752 mmHg 62%
17:00 +26°C° 0 mm 3 mps 752 mmHg 65%
18:00 +24°C° 0 mm 3 mps 752 mmHg 71%
19:00 +23°C° 0 mm 2 mps 752 mmHg 77%
20:00 +20°C° 0 mm 2 mps 751 mmHg 83%
21:00 +19°C° 0 mm 2 mps 752 mmHg 85%
22:00 +18°C° 0 mm 2 mps 752 mmHg 87%
23:00 +17°C° 0 mm 3 mps 752 mmHg 89%

Tomorrow, 19 June, Saturday

Time Temperature Precipitation Wind Pressure Humidity
00:00 +17°C° 0 mm 2 mps 752 mmHg 90%
01:00 +16°C° 0 mm 2 mps 752 mmHg 91%
02:00 +16°C° 0 mm 2 mps 752 mmHg 92%
03:00 +16°C° 0 mm 2 mps 752 mmHg 92%
04:00 +16°C° 0 mm 2 mps 752 mmHg 91%
05:00 +17°C° 0 mm 2 mps 752 mmHg 91%
06:00 +18°C° 0 mm 2 mps 752 mmHg 86%
07:00 +20°C° 0 mm 2 mps 752 mmHg 81%
08:00 +22°C° 0 mm 3 mps 752 mmHg 76%
09:00 +24°C° 0 mm 3 mps 752 mmHg 72%
10:00 +25°C° 0 mm 3 mps 752 mmHg 68%
11:00 +26°C° 0 mm 3 mps 752 mmHg 64%
12:00 +26°C° 0 mm 3 mps 751 mmHg 62%
13:00 +27°C° 0 mm 3 mps 751 mmHg 60%
14:00 +27°C° 0 mm 3 mps 751 mmHg 58%
15:00 +27°C° 0 mm 3 mps 751 mmHg 61%
16:00 +27°C° 0 mm 3 mps 750 mmHg 63%
17:00 +26°C° 0 mm 3 mps 750 mmHg 66%
18:00 +25°C° 0 mm 3 mps 750 mmHg 72%
19:00 +24°C° 0 mm 3 mps 750 mmHg 78%
20:00 +21°C° 0 mm 2 mps 750 mmHg 84%
21:00 +20°C° 0 mm 2 mps 750 mmHg 87%
22:00 +19°C° 0 mm 3 mps 750 mmHg 89%
23:00 +19°C° 0 mm 3 mps 750 mmHg 91%

Day after tomorrow, 20 June, Sunday

Time Temperature Precipitation Wind Pressure Humidity
00:00 +18°C° 0 mm 3 mps 750 mmHg 92%
01:00 +18°C° 0 mm 3 mps 750 mmHg 93%
02:00 +18°C° 0 mm 2 mps 750 mmHg 94%
03:00 +18°C° 0 mm 2 mps 750 mmHg 94%
04:00 +18°C° 0 mm 2 mps 750 mmHg 93%
05:00 +19°C° 0 mm 2 mps 750 mmHg 93%
06:00 +20°C° 0 mm 2 mps 750 mmHg 88%
07:00 +22°C° 0 mm 3 mps 750 mmHg 82%
08:00 +24°C° 0 mm 3 mps 750 mmHg 77%
09:00 +25°C° 0 mm 3 mps 750 mmHg 73%
10:00 +26°C° 0 mm 4 mps 750 mmHg 69%
11:00 +27°C° 0 mm 4 mps 750 mmHg 65%
12:00 +28°C° 0 mm 4 mps 749 mmHg 64%
13:00 +28°C° 0 mm 4 mps 749 mmHg 63%
14:00 +28°C° 0 mm 4 mps 749 mmHg 62%
15:00 +28°C° 0 mm 4 mps 749 mmHg 65%
16:00 +28°C° 0 mm 4 mps 748 mmHg 68%
17:00 +28°C° 0 mm 4 mps 748 mmHg 71%
18:00 +26°C° 0 mm 3 mps 748 mmHg 76%
19:00 +25°C° 0 mm 3 mps 748 mmHg 82%
20:00 +24°C° 0 mm 3 mps 748 mmHg 87%
21:00 +22°C° 0 mm 3 mps 748 mmHg 89%
22:00 +21°C° 0 mm 3 mps 748 mmHg 91%
23:00 +20°C° 0 mm 2 mps 748 mmHg 93%

21 June, Monday

Time Temperature Precipitation Wind Pressure Humidity
00:00 +19°C° 0 mm 3 mps 748 mmHg 93%
01:00 +19°C° 0 mm 3 mps 748 mmHg 93%
02:00 +18°C° 0 mm 3 mps 748 mmHg 93%
03:00 +18°C° 0 mm 2 mps 748 mmHg 93%
04:00 +19°C° 0 mm 2 mps 748 mmHg 92%
05:00 +19°C° 0 mm 2 mps 747 mmHg 92%
06:00 +20°C° 0 mm 3 mps 747 mmHg 86%
07:00 +21°C° 0 mm 3 mps 747 mmHg 80%
08:00 +23°C° 0 mm 4 mps 747 mmHg 74%
09:00 +25°C° 0 mm 4 mps 747 mmHg 69%
10:00 +26°C° 0 mm 5 mps 747 mmHg 63%
11:00 +27°C° 0 mm 5 mps 747 mmHg 58%
12:00 +27°C° 0 mm 5 mps 746 mmHg 58%
13:00 +28°C° 0 mm 5 mps 746 mmHg 58%
14:00 +28°C° 0 mm 5 mps 746 mmHg 57%
15:00 +28°C° 0 mm 5 mps 746 mmHg 61%
16:00 +28°C° 0 mm 5 mps 745 mmHg 64%
17:00 +28°C° 0 mm 5 mps 745 mmHg 68%
18:00 +27°C° 0 mm 5 mps 745 mmHg 73%
19:00 +26°C° 0 mm 4 mps 745 mmHg 78%
20:00 +25°C° 0 mm 4 mps 745 mmHg 83%
21:00 +23°C° 0 mm 4 mps 745 mmHg 86%
22:00 +22°C° 0 mm 4 mps 745 mmHg 90%
23:00 +21°C° 0 mm 3 mps 745 mmHg 93%

22 June, Tuesday

Time Temperature Precipitation Wind Pressure Humidity
00:00 +20°C° 0 mm 3 mps 745 mmHg 94%
01:00 +20°C° 0 mm 4 mps 745 mmHg 94%
02:00 +20°C° 0 mm 4 mps 745 mmHg 95%
03:00 +20°C° 0 mm 4 mps 745 mmHg 95%
04:00 +20°C° 0 mm 4 mps 745 mmHg 94%
05:00 +20°C° 0 mm 3 mps 745 mmHg 94%
06:00 +21°C° 0 mm 4 mps 745 mmHg 89%
07:00 +23°C° 0 mm 4 mps 745 mmHg 83%
08:00 +25°C° 0 mm 5 mps 745 mmHg 78%
09:00 +27°C° 0 mm 5 mps 745 mmHg 73%
10:00 +28°C° 0 mm 5 mps 745 mmHg 69%
11:00 +29°C° 0 mm 5 mps 745 mmHg 64%
12:00 +29°C° 0 mm 5 mps 745 mmHg 62%
13:00 +30°C° 0 mm 5 mps 745 mmHg 61%
14:00 +30°C° 0 mm 5 mps 745 mmHg 59%
15:00 +30°C° 0 mm 5 mps 745 mmHg 61%
16:00 +30°C° 0 mm 5 mps 745 mmHg 63%
17:00 +30°C° 0 mm 4 mps 745 mmHg 66%
18:00 +28°C° 0 mm 4 mps 745 mmHg 72%
19:00 +27°C° 0 mm 4 mps 745 mmHg 78%
20:00 +26°C° 0 mm 3 mps 745 mmHg 84%
21:00 +25°C° 0 mm 3 mps 745 mmHg 86%
22:00 +24°C° 0 mm 3 mps 746 mmHg 88%
23:00 +22°C° 0 mm 3 mps 746 mmHg 90%

23 June, Wednesday

Time Temperature Precipitation Wind Pressure Humidity
00:00 +21°C° 0 mm 3 mps 746 mmHg 91%
01:00 +21°C° 0 mm 3 mps 746 mmHg 93%
02:00 +20°C° 0 mm 3 mps 746 mmHg 95%
03:00 +20°C° 0 mm 2 mps 746 mmHg 95%
04:00 +20°C° 0 mm 2 mps 746 mmHg 95%
05:00 +20°C° 0 mm 2 mps 746 mmHg 95%
06:00 +22°C° 0 mm 3 mps 747 mmHg 89%
07:00 +25°C° 0 mm 3 mps 747 mmHg 82%
08:00 +27°C° 0 mm 4 mps 747 mmHg 76%
09:00 +28°C° 0 mm 4 mps 747 mmHg 71%
10:00 +29°C° 0 mm 5 mps 747 mmHg 66%
11:00 +30°C° 0 mm 5 mps 747 mmHg 61%
12:00 +32°C° 0 mm 5 mps 747 mmHg 60%
13:00 +32°C° 0 mm 5 mps 747 mmHg 58%
14:00 +33°C° 0 mm 5 mps 747 mmHg 56%
15:00 +32°C° 0 mm 5 mps 746 mmHg 59%
16:00 +32°C° 0 mm 4 mps 746 mmHg 61%
17:00 +32°C° 0 mm 4 mps 746 mmHg 64%
18:00 +29°C° 0 mm 4 mps 746 mmHg 70%
19:00 +28°C° 0 mm 3 mps 746 mmHg 76%
20:00 +26°C° 0 mm 3 mps 746 mmHg 82%
21:00 +26°C° 0 mm 3 mps 746 mmHg 84%
22:00 +25°C° 0 mm 3 mps 746 mmHg 85%
23:00 +24°C° 0 mm 3 mps 746 mmHg 87%
Show more